CAPE
0 0 0 0 0 0 0 0 0 0 0 0 0 0 0 0 0 0 0 0 0 0 0 0 0 0 5 2 1 0 0 0 0 1 22 135 158 50 117 57 4 0 0
0 0 0 0 0 0 0 0 0 0 0 0 0 0 0 0 0 0 0 0 0 0 0 0 0 0 1 0 2 1 0 0 0 0 2 11 173 122 145 50 2 0 0
0 0 0 0 0 0 0 0 0 0 0 0 0 0 0 0 0 0 0 0 0 0 0 0 0 0 0 1 5 3 0 0 0 0 0 0 88 175 181 72 2 0 3
0 0 0 0 0 0 0 0 0 0 0 0 0 0 0 0 0 0 0 0 0 0 0 0 0 0 0 0 1 4 2 0 0 0 0 0 15 199 195 91 20 0 0
0 0 0 0 0 0 0 0 0 0 0 0 0 0 0 0 0 0 0 0 0 0 0 0 0 0 0 0 0 0 3 2 0 0 0 0 2 55 134 116 17 1 0
0 0 0 0 0 0 0 0 0 0 0 0 0 0 0 0 0 0 0 0 0 0 0 0 0 0 0 0 0 0 0 3 1 0 0 0 1 0 160 81 22 1 0
0 0 0 0 0 0 0 0 0 0 0 0 0 0 0 0 0 0 0 0 0 0 0 0 0 0 0 0 0 0 0 0 5 0 0 0 0 1 68 124 25 1 0
1 1 3 1 1 0 7 0 0 0 0 0 0 0 0 0 0 0 0 0 0 0 0 0 0 0 0 0 0 0 0 0 5 4 0 0 0 0 2 164 49 32 1
2 0 0 0 0 0 0 0 0 0 0 0 0 0 0 0 0 0 0 0 0 0 0 0 0 0 0 0 0 0 0 0 0 5 6 3 0 0 2 96 76 31 5
0 0 0 0 0 0 0 0 0 0 0 0 0 0 0 0 0 0 0 0 0 0 0 0 0 0 0 0 0 0 0 0 0 0 5 1 1 0 0 6 156 90 6
0 0 0 0 0 0 0 0 0 0 0 0 0 0 0 0 0 0 0 0 0 0 0 0 0 0 0 0 0 0 0 0 0 0 0 0 2 6 0 0 154 34 0
0 0 0 0 0 0 0 0 0 0 0 0 0 0 0 0 0 0 0 0 0 0 0 0 0 0 0 0 0 0 0 0 0 0 0 1 0 0 0 0 6 32 11
0 0 0 0 0 0 0 0 0 0 0 0 0 0 0 0 0 0 0 0 0 0 0 0 0 0 0 0 0 0 0 0 0 0 0 0 0 0 0 0 0 135 7
0 0 0 0 0 0 0 0 0 0 0 0 0 0 0 0 0 0 0 0 0 0 0 0 0 0 0 0 0 0 0 0 0 0 0 0 0 0 0 0 0 142 34
0 0 0 0 0 0 0 0 0 0 0 0 0 0 0 0 0 0 0 0 0 0 0 0 0 0 0 0 0 0 0 0 0 0 0 0 0 0 0 0 0 1 19
0 0 0 0 0 0 0 0 0 0 0 0 0 0 0 0 0 0 0 0 0 0 0 0 0 0 0 0 0 0 0 0 0 0 0 0 0 0 0 0 0 0 1
3 5 2 2 0 0 0 0 0 0 0 0 0 0 0 0 0 0 0 0 0 0 0 0 0 0 0 0 0 0 0 0 0 0 0 0 0 0 0 0 0 0 0
2 2 1 2 2 3 0 0 0 0 1 0 2 1 0 0 0 0 0 0 0 0 0 0 0 0 0 2 1 0 0 0 0 0 0 0 0 0 0 0 0 0 0
2 3 0 0 1 2 0 0 0 0 0 0 0 1 0 0 0 0 0 0 0 0 0 0 0 0 0 2 4 0 0 0 0 0 0 0 0 0 0 0 0 0 0
1 1 1 3 0 0 1 1 0 0 0 0 0 0 1 0 0 0 0 0 0 0 0 0 0 0 0 0 2 0 1 5 6 1 0 0 0 0 0 0 0 1 0
1 0 0 0 0 0 1 0 0 0 0 0 0 1 1 0 0 0 0 0 0 0 0 0 0 0 0 0 0 3 6 8 30 5 0 0 0 0 0 0 0 0 0
0 0 0 0 0 0 1 1 0 1 0 0 0 0 0 1 1 0 0 0 0 0 0 0 0 0 0 0 3 6 0 8 8 9 0 3 1 0 0 1 2 0 0
0 0 0 0 0 0 0 0 0 0 0 0 0 0 1 0 0 0 0 0 0 0 0 0 0 0 0 0 0 1 0 13 19 2 0 0 1 0 0 1 0 0 0
0 0 0 0 0 0 0 0 0 0 0 0 0 0 0 1 1 0 0 0 0 0 0 0 0 0 0 0 0 1 0 4 1 0 0 0 3 2 4 3 0 0 0
0 0 0 0 0 0 0 0 0 0 0 0 0 0 1 0 0 0 0 0 0 0 0 0 0 0 0 2 4 4 3 6 3 0 0 0 3 4 5 4 3 0 0
0 1 0 0 0 0 0 0 0 0 0 0 0 1 0 1 0 0 0 0 0 0 0 0 0 0 4 43 22 0 3 7 0 0 0 0 1 0 0 7 5 5 5
CIN
-0 -0 -0 -0 -0 -0 -0 -0 -0 -0 -0 -0 -0 -0 -0 -0 -0 -0 -0 -0 -0 -0 -0 -0 -0 -0 -0 -0 -0 -0 -0 -0 -0 -67 -114 -17 -6 -49 -5 -24 -89 -0 -0
-0 -0 -0 -0 -0 -0 -0 -0 -0 -0 -0 -0 -0 -0 -0 -0 -0 -0 -0 -0 -0 -0 -0 -0 -0 -0 -0 -0 -0 -0 -0 -0 -0 -0 -0 -135 -7 -12 -1 -17 -50 -0 -0
-0 -0 -0 -0 -0 -0 -0 -0 -0 -0 -0 -0 -0 -0 -0 -0 -0 -0 -0 -0 -0 -0 -0 -0 -0 -0 -0 -0 -0 -0 -0 -0 -0 -0 -0 -1 -51 -3 -2 -32 -85 -0 -126
-0 -0 -0 -0 -0 -0 -0 -0 -0 -0 -0 -0 -0 -0 -0 -0 -0 -0 -0 -0 -0 -0 -0 -0 -0 -0 -0 -0 -0 -0 -0 -0 -0 -0 -0 -0 -84 -1 -4 -24 -105 -0 -0
-0 -0 -0 -0 -0 -0 -0 -0 -0 -0 -0 -0 -0 -0 -0 -0 -0 -0 -0 -0 -0 -0 -0 -0 -0 -0 -0 -0 -0 -0 -0 -0 -0 -0 -0 -0 -0 -28 -2 -3 -61 -37 -0
-0 -56 -0 -0 -0 -0 -0 -0 -0 -0 -0 -0 -0 -0 -0 -0 -0 -0 -0 -0 -0 -0 -0 -0 -0 -0 -0 -0 -0 -0 -0 -0 -0 -0 -0 -0 -0 -0 -0 -1 -27 -34 -0
-25 -0 -0 -0 -0 -0 -0 -0 -0 -0 -0 -0 -0 -0 -0 -0 -0 -0 -0 -0 -0 -0 -0 -0 -0 -0 -0 -0 -0 -0 -0 -0 -0 -0 -0 -0 -0 -0 -10 -3 -22 -21 -0
-18 -23 -69 -33 -38 -0 -13 -0 -0 -0 -0 -0 -0 -0 -0 -0 -0 -0 -0 -0 -0 -0 -0 -0 -0 -0 -0 -0 -0 -0 -0 -0 -0 -0 -0 -0 -0 -0 -0 -1 -13 -43 -30
-40 -0 -0 -0 -0 -0 -0 -0 -0 -0 -0 -0 -0 -0 -0 -0 -0 -0 -0 -0 -0 -0 -0 -0 -0 -0 -0 -0 -0 -0 -0 -0 -0 -0 -1 -0 -0 -0 -0 -2 -2 -70 -50
-0 -0 -0 -0 -0 -0 -0 -0 -0 -0 -0 -0 -0 -0 -0 -0 -0 -0 -0 -0 -0 -0 -0 -0 -0 -0 -0 -0 -0 -0 -0 -0 -0 -0 -6 -5 -0 -0 -0 -3 -4 -32 -45
-0 -0 -0 -0 -0 -0 -0 -0 -0 -0 -0 -0 -0 -0 -0 -0 -0 -0 -0 -0 -0 -0 -0 -0 -0 -0 -0 -0 -0 -0 -0 -0 -0 -0 -0 -0 -1 -1 -0 -0 -46 -9 -0
-0 -0 -0 -0 -0 -0 -0 -0 -0 -0 -0 -0 -0 -0 -0 -0 -0 -0 -0 -0 -0 -0 -0 -0 -0 -0 -0 -0 -0 -0 -0 -0 -0 -0 -0 -16 -0 -0 -0 -0 -169 -16 -76
-0 -0 -0 -0 -0 -0 -0 -0 -0 -0 -0 -0 -0 -0 -0 -0 -0 -0 -0 -0 -0 -0 -0 -0 -0 -0 -0 -0 -0 -0 -0 -0 -0 -0 -0 -0 -0 -0 -0 -0 -0 -2 -28
-0 -0 -0 -0 -0 -0 -0 -0 -0 -0 -0 -0 -0 -0 -0 -0 -0 -0 -0 -0 -0 -0 -0 -0 -0 -0 -0 -0 -0 -0 -0 -0 -0 -0 -0 -0 -0 -0 -0 -0 -0 -15 -15
-0 -0 -0 -0 -0 -0 -0 -0 -0 -0 -0 -0 -0 -0 -0 -0 -0 -0 -0 -0 -0 -0 -0 -0 -0 -0 -0 -0 -0 -0 -0 -0 -0 -0 -0 -0 -0 -0 -0 -0 -0 -0 -20
-0 -0 -5 -0 -0 -0 -0 -0 -0 -0 -0 -0 -0 -0 -0 -0 -0 -0 -0 -0 -0 -0 -0 -0 -0 -0 -0 -0 -0 -0 -0 -0 -0 -0 -0 -0 -0 -0 -0 -0 -0 -0 -21
-7 -6 -10 -10 -7 -0 -0 -0 -0 -0 -0 -0 -0 -0 -0 -0 -0 -0 -0 -0 -0 -0 -0 -0 -0 -0 -0 -0 -0 -0 -0 -0 -0 -0 -0 -0 -0 -0 -0 -0 -0 -0 -0
-1 -2 -0 -1 -1 -0 -0 -0 -0 -0 -0 -0 -1 -0 -0 -0 -0 -0 -0 -0 -0 -0 -0 -0 -0 -0 -0 -21 -21 -0 -0 -0 -0 -0 -0 -0 -0 -0 -0 -0 -0 -0 -0
-0 -0 -0 -0 -2 -2 -1 -0 -0 -0 -0 -0 -0 -1 -3 -0 -0 -0 -0 -0 -0 -0 -0 -0 -0 -0 -0 -30 -19 -0 -0 -0 -0 -0 -0 -0 -0 -0 -0 -0 -0 -0 -0
-0 -1 -0 -1 -1 -0 -0 -1 -0 -0 -0 -0 -0 -0 -1 -1 -0 -0 -0 -0 -0 -0 -0 -0 -0 -0 -0 -0 -15 -2 -2 -13 -11 -7 -0 -0 -0 -0 -0 -0 -0 -0 -0
-0 -0 -0 -0 -0 -0 -0 -0 -0 -0 -0 -0 -0 -0 -1 -0 -1 -0 -0 -0 -0 -0 -0 -0 -0 -0 -0 -0 -0 -12 -7 -15 -11 -10 -0 -0 -0 -0 -0 -0 -0 -0 -0
-0 -0 -0 -0 -0 -0 -0 -0 -0 -0 -0 -0 -0 -0 -0 -0 -0 -0 -0 -0 -0 -0 -0 -0 -0 -0 -0 -0 -20 -14 -8 -8 -4 -6 -0 -0 -0 -0 -0 -0 -0 -0 -0
-0 -0 -0 -0 -1 -0 -0 -0 -1 -0 -0 -0 -0 -0 -0 -0 -0 -0 -0 -0 -0 -0 -0 -0 -0 -0 -0 -0 -3 -21 -0 -9 -9 -6 -0 -0 -0 -0 -0 -0 -0 -0 -0
-0 -0 -0 -0 -0 -0 -0 -0 -0 -0 -0 -0 -2 -0 -0 -0 -0 -0 -0 -0 -0 -0 -0 -0 -0 -0 -0 -0 -8 -23 -0 -31 -12 -0 -0 -0 -0 -0 -0 -0 -0 -0 -0
-0 -0 -0 -0 -0 -0 -0 -0 -0 -0 -0 -0 -0 -0 -0 -0 -0 -0 -0 -0 -0 -0 -0 -0 -0 -0 -0 -60 -70 -62 -16 -10 -8 -0 -0 -0 -0 -0 -0 -0 -0 -0 -0
-0 -0 -0 -0 -0 -0 -0 -0 -0 -0 -0 -0 -0 -0 -3 -0 -0 -0 -0 -0 -0 -0 -0 -0 -0 -0 -46 -25 -50 -0 -26 -11 -0 -0 -0 -0 -0 -0 -0 -0 -0 -0 -0
Wind_Speed
17 16 17 17 17 18 19 21 22 22 21 21 21 22 22 21 21 22 23 24 23 24 24 24 23 24 22 21 20 20 21 21 21 20 21 19 9 3 1 2 3 5 7
18 18 17 19 20 18 18 21 22 22 22 20 21 23 24 23 22 21 22 23 24 25 26 25 24 24 25 23 22 21 21 22 22 21 20 20 16 4 2 1 1 4 5
15 18 18 18 20 19 20 21 22 22 22 23 25 25 24 23 24 24 23 23 24 26 26 26 25 24 26 26 24 24 23 23 23 23 22 20 20 7 4 2 1 3 5
17 19 21 22 24 23 23 23 23 24 25 27 28 27 26 26 26 26 26 25 25 25 25 27 26 25 25 26 27 26 24 24 24 24 22 21 20 15 6 4 2 2 3
22 23 26 28 26 24 22 23 25 24 25 27 28 27 26 27 27 28 28 27 26 25 26 26 26 26 26 26 27 28 27 26 25 25 24 22 22 20 7 6 4 3 4
26 27 29 32 32 29 26 25 23 23 24 26 28 29 28 27 25 27 27 28 27 27 26 27 27 27 28 27 27 28 29 27 26 26 26 24 23 22 19 9 5 2 2
23 23 24 24 25 29 28 28 24 27 26 26 27 30 29 25 25 25 30 30 30 30 28 28 27 28 27 28 28 28 29 29 27 27 26 24 25 23 21 9 5 4 2
26 24 25 26 27 26 27 28 33 33 29 25 28 29 31 27 25 25 32 34 35 33 31 29 28 29 28 27 28 28 29 30 29 28 28 27 25 24 23 10 6 6 5
29 28 28 29 30 29 31 31 31 30 29 28 25 26 27 26 23 24 26 28 32 32 32 31 29 30 29 29 28 28 29 31 31 30 28 28 26 25 24 16 10 6 6
31 31 31 32 31 31 31 33 32 31 29 28 28 27 26 23 22 24 23 24 24 26 28 29 29 28 29 29 29 28 29 29 32 32 30 29 29 26 26 24 12 16 12
34 31 30 29 29 30 31 32 31 31 33 32 29 28 27 27 26 26 32 31 26 22 23 27 30 30 29 29 29 29 29 29 31 33 33 31 27 25 25 27 14 14 8
36 34 32 30 30 30 31 31 32 32 33 35 34 29 30 31 30 31 33 32 33 27 24 25 28 30 30 29 29 29 30 29 30 32 34 29 26 26 25 27 31 13 9
36 33 31 31 30 29 28 25 26 28 30 33 35 35 33 32 30 30 30 29 30 26 23 24 25 30 30 29 30 29 30 28 29 31 33 32 29 28 25 26 27 14 11
36 33 32 32 33 33 33 33 31 30 28 28 32 36 38 35 30 30 29 26 27 27 24 23 21 27 29 29 29 29 29 29 28 30 33 33 31 32 28 25 25 20 11
34 33 32 33 32 33 33 33 35 34 33 33 31 31 36 38 34 31 29 28 25 26 25 22 19 22 27 28 29 28 29 28 28 30 32 34 33 34 30 29 28 22 12
29 30 30 29 31 31 29 29 31 32 35 34 33 34 33 36 35 32 29 27 26 24 23 19 20 21 24 27 28 27 28 29 29 31 32 32 31 32 31 30 28 29 18
28 28 29 30 31 31 30 30 29 29 31 34 34 34 36 33 36 33 31 28 27 23 23 21 21 22 22 24 25 26 26 28 29 30 32 32 32 32 31 32 30 31 15
26 27 29 25 28 30 30 29 29 28 29 31 31 32 34 34 36 34 32 30 27 24 23 20 21 20 22 24 24 24 25 26 28 31 33 33 31 32 33 33 30 34 17
26 27 28 29 27 32 31 30 28 26 27 30 30 32 30 33 34 33 32 30 26 23 23 20 20 19 21 22 22 24 25 27 26 28 32 32 33 32 33 33 30 30 17
27 25 28 27 22 31 32 31 27 25 26 28 29 29 25 31 34 32 31 30 27 24 23 22 21 20 22 22 23 24 25 25 25 25 25 28 28 31 33 35 32 25 17
26 24 25 27 21 30 29 28 25 23 24 26 27 23 24 31 33 32 31 30 28 25 23 23 22 19 20 24 28 24 25 24 23 23 25 27 28 29 30 32 36 20 17
24 25 24 27 22 26 28 29 24 19 21 23 25 23 19 24 34 31 30 29 28 26 25 23 21 19 21 22 24 24 24 26 25 23 23 23 24 26 27 27 25 20 17
23 25 25 27 25 22 20 22 18 16 18 23 26 22 23 26 26 29 29 28 28 26 25 24 20 19 19 20 23 24 25 24 23 22 21 22 21 22 22 23 22 22 15
23 23 25 26 22 15 12 13 10 13 16 19 24 25 27 28 29 29 28 30 29 26 23 23 21 19 20 22 24 25 24 21 19 20 20 24 22 21 19 18 22 17 13
21 21 20 22 16 10 8 9 11 15 17 22 21 23 27 31 32 30 33 33 29 26 25 25 22 21 23 25 27 26 28 25 26 25 23 22 24 19 18 17 20 15 12
20 23 22 9 9 6 7 11 13 15 17 20 25 25 27 31 32 34 35 34 31 26 26 24 22 22 22 23 25 28 29 29 26 26 26 25 26 22 24 20 16 14 13
Wind_Direction
313 315 317 321 323 325 323 322 321 322 324 323 322 316 314 314 311 304 297 293 292 292 293 293 287 279 282 282 284 283 279 275 272 275 269 269 269 275 282 287 25 42 37
306 308 310 309 312 316 318 316 317 317 319 320 318 315 312 310 309 307 301 296 291 289 287 287 288 279 275 277 278 279 278 273 270 270 272 265 263 254 218 181 64 47 24
299 302 305 307 307 309 310 311 312 313 314 312 310 311 311 308 303 299 299 297 292 287 285 282 282 282 274 271 272 273 274 272 267 265 267 266 261 250 220 190 112 50 56
295 295 298 299 301 301 302 303 306 306 307 307 305 305 305 302 298 294 292 292 290 288 286 281 278 278 277 270 267 268 269 267 266 261 263 266 260 256 217 204 162 80 53
297 294 295 296 296 295 295 298 300 302 305 306 305 303 300 297 293 291 287 287 286 286 283 281 277 275 274 272 266 263 263 263 263 259 257 261 258 258 224 201 183 122 81
298 296 296 293 291 292 291 293 295 300 302 304 302 298 297 297 297 289 285 284 282 281 281 278 276 276 271 269 267 263 259 260 260 257 253 257 259 253 248 151 156 165 250
302 301 302 302 302 294 288 287 291 293 293 299 302 299 298 297 294 291 281 279 278 276 276 275 274 272 272 268 265 264 257 255 256 253 252 254 251 256 253 226 211 194 216
299 295 292 289 292 284 287 282 285 288 287 288 296 297 296 295 294 292 280 275 272 270 270 271 271 269 268 269 265 262 258 253 252 251 249 250 252 254 254 220 189 196 222
299 296 294 293 291 287 286 284 283 278 279 281 285 292 294 290 297 294 285 280 273 268 265 265 269 267 264 264 264 261 257 252 249 249 248 248 250 251 251 242 191 190 166
298 296 294 292 290 288 285 284 282 278 274 275 281 281 283 288 288 288 285 282 289 273 267 264 266 266 263 260 261 259 256 253 247 246 246 247 245 247 247 249 198 149 148
303 299 296 294 291 291 288 284 281 275 270 271 273 277 276 279 279 277 272 271 281 281 275 270 264 261 261 259 257 256 255 253 248 243 242 244 243 245 247 249 197 175 170
305 301 299 294 292 292 289 284 281 276 270 267 268 266 268 269 270 266 263 263 258 271 277 276 264 256 259 256 254 254 252 253 248 241 238 242 242 243 248 247 242 185 190
307 304 301 298 295 292 288 286 285 281 273 268 264 262 262 264 267 265 262 265 264 270 278 283 268 255 252 253 251 252 249 251 248 240 238 239 240 242 248 251 256 198 197
309 305 300 296 293 290 284 282 281 277 275 273 267 261 258 258 261 260 259 260 263 263 270 272 277 256 252 249 247 249 246 247 245 240 239 239 241 239 244 250 251 228 194
315 309 302 298 294 289 284 281 277 275 272 269 267 266 258 254 253 255 255 255 257 258 261 269 278 265 252 248 246 247 243 245 244 241 240 239 241 238 242 245 243 244 220
324 316 310 303 296 291 287 282 278 275 270 267 265 260 260 253 249 248 249 249 250 256 259 265 269 264 256 247 244 245 242 242 244 240 240 239 240 238 238 239 235 237 221
328 321 313 304 297 291 285 281 278 276 272 267 263 258 253 251 245 243 243 244 246 249 251 257 262 263 253 244 245 244 241 241 243 240 241 240 239 237 235 233 234 231 180
337 328 317 312 300 292 284 279 274 273 271 267 263 255 247 245 241 238 237 238 239 242 245 249 257 262 251 245 243 242 242 243 242 241 240 239 238 235 232 229 234 227 181
343 336 326 315 309 290 283 276 271 268 268 265 261 255 243 236 236 232 230 230 231 236 240 246 251 259 253 244 243 242 244 242 244 244 240 239 236 234 229 226 228 221 187
348 346 334 325 321 289 279 273 267 263 263 261 255 252 235 229 229 226 225 224 225 230 236 241 244 255 251 242 241 238 241 239 242 243 242 239 237 232 225 223 228 219 204
355 357 347 336 338 286 273 265 260 258 255 254 248 243 231 228 225 223 220 219 221 226 231 237 238 251 249 237 232 239 235 238 242 241 241 235 233 226 221 223 223 208 184
4 1 1 345 349 287 263 251 254 249 247 245 238 233 222 224 221 217 215 215 218 222 227 231 233 243 242 239 234 235 234 234 235 240 234 227 224 218 221 225 218 187 194
13 11 8 357 348 291 262 243 243 242 242 236 228 226 219 217 213 207 208 212 215 219 225 226 228 239 242 236 233 232 232 235 235 235 224 217 218 216 224 222 210 187 183
25 24 20 16 336 303 261 238 235 235 235 232 223 220 216 213 211 202 205 209 213 219 222 223 226 236 240 238 234 233 232 237 233 224 221 211 219 213 220 217 202 187 180
46 47 55 52 329 296 252 231 231 226 224 219 218 215 213 209 207 206 205 205 210 216 219 220 228 236 239 236 233 231 226 226 221 219 220 212 209 209 210 209 206 199 181
70 70 77 134 158 248 233 222 217 213 211 209 206 208 209 206 206 203 201 201 206 212 213 218 227 236 238 234 230 220 222 221 212 216 215 211 207 208 201 211 213 218 217